This is the latest recevied weather packets stored in our database for station/object F4JFI-13. If no packets are shown the sender has not sent any weather packets the latest 1 day(s).
| Time | Temp. | Humidity | Pressure | Rain* | Wind** | Luminosity | Snow |
|---|---|---|---|---|---|---|---|
| 1777992128 | 15.56° C | 78% | 1008.6 hPa | - | 0.45 m/s, 342° | - | - |
| 1777991528 | 15.56° C | 78% | 1008.6 hPa | - | 0.45 m/s, 212° | - | - |
| 1777990938 | 15.56° C | 80% | 1008.6 hPa | - | 0 m/s | - | - |
| 1777990328 | 15.56° C | 80% | 1008.6 hPa | - | 0 m/s | - | - |
| 1777989728 | 15.56° C | 80% | 1008.8 hPa | - | 0.89 m/s, 210° | - | - |
| 1777989128 | 15.56° C | 86% | 1009 hPa | - | 0 m/s | - | - |
| 1777988528 | 15.56° C | 82% | 1009 hPa | - | 0 m/s | - | - |
| 1777987928 | 15.56° C | 86% | 1009 hPa | - | 0 m/s | - | - |
| 1777987328 | 14.44° C | 88% | 1009 hPa | - | 0.45 m/s, 134° | - | - |
| 1777986728 | 14.44° C | 92% | 1009.2 hPa | - | 0.45 m/s, 280° | - | - |
| 1777986128 | 13.33° C | 90% | 1009.2 hPa | - | 0.45 m/s, 312° | - | - |
| 1777985528 | 13.33° C | 92% | 1009.2 hPa | - | 0 m/s | - | - |
| 1777984928 | 13.33° C | 90% | 1009.2 hPa | - | 0.45 m/s, 296° | - | - |
| 1777984328 | 13.33° C | 90% | 1009.4 hPa | - | 0.45 m/s, 328° | - | - |
| 1777983737 | 13.33° C | 90% | 1009.6 hPa | - | 0 m/s | - | - |
| 1777983128 | 13.33° C | 90% | 1009.6 hPa | - | 0.45 m/s, 212° | - | - |
| 1777982528 | 13.33° C | 90% | 1009.6 hPa | - | 0.45 m/s, 188° | - | - |
| 1777981928 | 13.33° C | 88% | 1009.6 hPa | - | 0.45 m/s, 294° | - | - |
| 1777981328 | 13.33° C | 88% | 1009.6 hPa | - | 0.89 m/s, 286° | - | - |
| 1777980728 | 13.33° C | 86% | 1009.4 hPa | - | 0.89 m/s, 204° | - | - |
| 1777980128 | 14.44° C | 86% | 1009.2 hPa | - | 0.89 m/s, 230° | - | - |
| 1777979528 | 14.44° C | 82% | 1009.2 hPa | - | 1.34 m/s, 166° | - | - |
| 1777978928 | 15.56° C | 76% | 1009 hPa | - | 0.89 m/s, 214° | - | - |
| 1777978328 | 16.67° C | 76% | 1008.8 hPa | - | 0.45 m/s, 270° | - | - |
| 1777977728 | 16.67° C | 74% | 1008.6 hPa | - | 0.45 m/s, 208° | - | - |
* Rain since midnight (hover to see other rain measurements)
** Current wind speed in m/s (hover to see current wind gust speed)